2010 TX168

Initial reported observation by Catalina Sky Survey on 2010-10-11.
(Discoverer will be defined when the object is numbered. See this note on how discoverers are determined.)

Orbit

Orbit type: Apollo
Potentially Hazardous Asteroid

Note: WebGL enabled browser required.

epoch2023-09-13.0
epoch JD2460200.5
perihelion date2023-09-01.00514
perihelion JD2460188.50514
argument of perihelion (°)101.55001
ascending node (°)32.92278
inclination (°)26.02165
eccentricity0.5233450
perihelion distance (AU)0.7069949
Tisserand w.r.t. Jupiter4.3
ΔV w.r.t. Earth (km/sec)10.2
semimajor axis (AU)1.4832424
mean anomaly (°)6.54457
mean daily motion (°/day)0.54561420
aphelion distance (AU)2.259
period (years)1.81
P-vector [x]-0.64658986
P-vector [y]0.40723519
P-vector [z]0.64504345
Q-vector [x]-0.72461476
Q-vector [y]-0.59218863
Q-vector [z]-0.35248557
absolute magnitude20.07
phase slope0.15
uncertainty0
referenceMPEC 2023-Y75
observations used267
oppositions4
arc length (days)3322
first opposition used2010
last opposition used2019
residual rms (arc-secs)0.76
perturbers coarse indicatorM-v
perturbers precise indicator003Ek
first observation date used2010-10-11.0
last observation date used2019-11-15.0
computer nameMPCLINUX
JD of orbit computation2458104.010978
perihelion JD uncertainty (days)2.6629E-04
argument of perihelion uncertainty (°)3.7108E-05
ascending node uncertainty (°)4.4603E-06
inclination uncertainty (°)3.3476E-05
eccentricity uncertainty 2.6129E-07
perihelion distance uncertainty (AU)3.7080E-07
Minimum Orbit Intersection Distances (in AU)
for orbit epoch: 2460200.5, reference: E2023-Y75
Mercury0.3858
Venus0.14269
Earth0.0223
Mars0.11975
Jupiter3.09783
Saturn7.72182
Uranus17.6003
Neptune28.0011

Observations

274 total observations over interval: 2010 10 11.36795 – 2019 11 15.753777
These data are available for download (format description).

Date (UT) J2000 RA J2000 Dec Magn Location Ref
2010 10 11.36795 03 04 20.49 +01 24 47.6 19.0 V 703 – Catalina Sky Survey MPS 351752
2010 10 11.38177 03 04 19.16 +01 25 09.6 19.2 V 703 – Catalina Sky Survey MPS 351752
2010 10 11.38875 03 04 18.48 +01 25 21.1 19.3 V 703 – Catalina Sky Survey MPS 351752
2010 10 18.92429 02 47 00.12 +05 55 22.9 17.4 V J75 – OAM Observatory, La Sagra MPS 351752
2010 10 18.93736 02 46 57.53 +05 56 00.9 18.3 V J75 – OAM Observatory, La Sagra MPS 351752
2010 10 18.95043 02 46 54.89 +05 56 36.9 17.1 V J75 – OAM Observatory, La Sagra MPS 351752
2010 10 19.02897 02 46 39.03 +06 00 21.1 18.2 V J75 – OAM Observatory, La Sagra MPS 351752
2010 10 19.03314 02 46 38.19 +06 00 32.8 18.1 V J75 – OAM Observatory, La Sagra MPS 351752
2010 10 19.03732 02 46 37.32 +06 00 44.8 18.1 V J75 – OAM Observatory, La Sagra MPS 351752
2010 10 19.17667 02 46 11.04 +06 07 23.3 17.9 V H26 – Doc Greiner Research Observatory, Janesvillle MPS 351752
2010 10 19.17921 02 46 10.63 +06 07 29.0 17.8 V H26 – Doc Greiner Research Observatory, Janesvillle MPS 351752
2010 10 19.18685 02 46 09.11 +06 07 48.8 17.2 V H26 – Doc Greiner Research Observatory, Janesvillle MPS 351752
2010 10 19.19947 02 46 06.48 +06 08 27.9 18.2 V H26 – Doc Greiner Research Observatory, Janesvillle MPS 351752
2010 10 19.20123 02 46 06.07 +06 08 32.9 17.9 V H26 – Doc Greiner Research Observatory, Janesvillle MPS 351752
2010 10 19.20300 02 46 05.75 +06 08 37.8 18.0 V H26 – Doc Greiner Research Observatory, Janesvillle MPS 351752
2010 10 19.20473 02 46 05.42 +06 08 42.5 18.4 R H26 – Doc Greiner Research Observatory, Janesvillle MPS 351752
2010 10 19.20652 02 46 05.04 +06 08 47.5 18.4 R H26 – Doc Greiner Research Observatory, Janesvillle MPS 351752
2010 10 19.20829 02 46 04.68 +06 08 52.5 18.4 R H26 – Doc Greiner Research Observatory, Janesvillle MPS 351752
2010 10 19.26158 02 45 54.29 +06 11 31.0   H10 – Tzec Maun Observatory, Mayhill MPS 351752
2010 10 19.27039 02 45 52.49 +06 11 56.5   H10 – Tzec Maun Observatory, Mayhill MPS 351752
2010 10 19.28096 02 45 50.31 +06 12 26.6 17.7 R H10 – Tzec Maun Observatory, Mayhill MPS 351752
2010 10 19.34875 02 45 36.27 +06 15 45.5 18.4 R 854 – Sabino Canyon Observatory, Tucson MPS 351752
2010 10 19.34971 02 45 35.97 +06 15 49.2 18.3 R 854 – Sabino Canyon Observatory, Tucson MPS 351752
2010 10 19.35069 02 45 35.79 +06 15 51.9 18.3 R 854 – Sabino Canyon Observatory, Tucson MPS 351752
2010 10 19.87638 02 43 49.91 +06 41 50.3 18.3 R 473 – Remanzacco MPS 351752
2010 10 19.87847 02 43 49.45 +06 41 56.3 18.3 R 473 – Remanzacco MPS 351752
2010 10 19.91990 02 43 40.72 +06 44 00.8 18.2 V 951 – Highworth MPS 351752
2010 10 19.92448 02 43 39.68 +06 44 14.8 18.3 V 951 – Highworth MPS 351752
2010 10 19.93135 02 43 38.21 +06 44 35.3 18.3 V 951 – Highworth MPS 351752
2010 10 19.94728 02 43 35.00 +06 45 30.4 18.0 V J75 – OAM Observatory, La Sagra MPS 351752
2010 10 19.95007 02 43 34.39 +06 45 38.8 18.1 V J75 – OAM Observatory, La Sagra MPS 351752
2010 10 19.95288 02 43 33.78 +06 45 47.5 18.2 V J75 – OAM Observatory, La Sagra MPS 351752
2010 10 20.16396 02 42 48.40 +06 57 18.1 17.0 R 844 – Observatorio Astronomico Los Molinos MPS 351752
2010 10 20.16448 02 42 48.25 +06 57 18.5 17.3 R 844 – Observatorio Astronomico Los Molinos MPS 351752
2010 10 20.16497 02 42 48.13 +06 57 20.7 17.6 R 844 – Observatorio Astronomico Los Molinos MPS 351752
2010 10 20.16547 02 42 48.04 +06 57 23.2 17.3 R 844 – Observatorio Astronomico Los Molinos MPS 351752
2010 10 20.16598 02 42 48.00 +06 57 25.3 17.3 R 844 – Observatorio Astronomico Los Molinos MPS 351752
2010 10 20.16650 02 42 47.86 +06 57 26.1 17.6 R 844 – Observatorio Astronomico Los Molinos MPS 351752
2010 10 20.16701 02 42 47.66 +06 57 28.4 17.3 R 844 – Observatorio Astronomico Los Molinos MPS 351752
2010 10 20.16752 02 42 47.60 +06 57 30.7 16.9 R 844 – Observatorio Astronomico Los Molinos MPS 351752
2010 10 20.16803 02 42 47.54 +06 57 30.4 17.5 R 844 – Observatorio Astronomico Los Molinos MPS 351752
2010 10 20.315260 02 42 15.12 +07 04 31.6 18.0 V H21 – Astronomical Research Observatory, Westfield MPS 351752
2010 10 20.318877 02 42 14.29 +07 04 42.9 18.0 V H21 – Astronomical Research Observatory, Westfield MPS 351752
2010 10 20.32200 02 42 13.78 +07 04 53.3 18.5 R H36 – Sandlot Observatory, Scranton MPS 351752
2010 10 20.323290 02 42 13.29 +07 04 56.7 18.0 V H21 – Astronomical Research Observatory, Westfield MPS 351752
2010 10 20.32436 02 42 13.24 +07 05 00.6 18.5 R H36 – Sandlot Observatory, Scranton MPS 351752
2010 10 20.32671 02 42 12.68 +07 05 08.4 18.3 R H36 – Sandlot Observatory, Scranton MPS 351752
2010 10 20.32907 02 42 12.16 +07 05 15.3 18.2 R H36 – Sandlot Observatory, Scranton MPS 351752
2010 10 20.33142 02 42 11.66 +07 05 22.6 18.6 R H36 – Sandlot Observatory, Scranton MPS 351752
2010 10 20.56465 02 41 21.40 +07 18 23.6 17.9 R E10 – Siding Spring-Faulkes Telescope South MPS 351752
2010 10 20.56603 02 41 21.11 +07 18 27.3 17.8 R E10 – Siding Spring-Faulkes Telescope South MPS 351752
2010 10 20.56743 02 41 20.79 +07 18 32.1 17.9 R E10 – Siding Spring-Faulkes Telescope South MPS 351752
2010 10 20.56872 02 41 20.49 +07 18 36.3 17.8 R E10 – Siding Spring-Faulkes Telescope South MPS 351752
2010 10 20.58817 02 41 15.89 +07 19 39.1 18.1 R E10 – Siding Spring-Faulkes Telescope South MPS 351752
2010 10 20.58908 02 41 15.73 +07 19 42.0 18.0 R E10 – Siding Spring-Faulkes Telescope South MPS 351752
2010 10 20.58997 02 41 15.53 +07 19 44.8 17.9 R E10 – Siding Spring-Faulkes Telescope South MPS 351752
2010 10 20.60390 02 41 12.24 +07 20 29.1 17.9 V E12 – Siding Spring Survey MPS 351752
2010 10 20.60710 02 41 11.48 +07 20 39.6 17.8 V E12 – Siding Spring Survey MPS 351752
2010 10 21.91588 02 36 02.37 +08 33 56.5 18.0 R 160 – Castelmartini MPS 351752
2010 10 21.91782 02 36 01.87 +08 34 03.3 18.2 R 160 – Castelmartini MPS 351752
2010 10 21.91975 02 36 01.37 +08 34 09.8 18.1 R 160 – Castelmartini MPS 351752
2010 10 25.82148 02 16 20.00 +13 05 29.4 16.8 R A17 – Guidestar Observatory, Weinheim MPS 351752
2010 10 25.82537 02 16 18.57 +13 05 48.4 17.0 R A17 – Guidestar Observatory, Weinheim MPS 351752
2010 10 25.83276 02 16 15.84 +13 06 24.4 17.0 R A17 – Guidestar Observatory, Weinheim MPS 351752
2010 10 25.83470 02 16 15.12 +13 06 33.8 16.9 R A17 – Guidestar Observatory, Weinheim MPS 351752
2010 10 26.96516 02 09 00.77 +14 41 48.1   204 – Schiaparelli Observatory MPS 353939
2010 10 26.96674 02 09 00.10 +14 41 56.5   204 – Schiaparelli Observatory MPS 353939
2010 10 26.96784 02 08 59.64 +14 42 02.4   203 – GiaGa Observatory MPS 351752
2010 10 26.96837 02 08 59.42 +14 42 05.0   204 – Schiaparelli Observatory MPS 353939
2010 10 26.97011 02 08 58.69 +14 42 14.2   204 – Schiaparelli Observatory MPS 353939
2010 10 26.97182 02 08 57.98 +14 42 23.3 16.8 R 204 – Schiaparelli Observatory MPS 353939
2010 10 27.00102 02 08 45.72 +14 44 57.2 16.7 R B75 – Stazione Astronomica Betelgeuse, Magnago MPS 351752
2010 10 27.00311 02 08 45.00 +14 45 07.4 16.5 R B75 – Stazione Astronomica Betelgeuse, Magnago MPS 351752
2010 10 27.00656 02 08 43.46 +14 45 26.3 16.3 R B75 – Stazione Astronomica Betelgeuse, Magnago MPS 351752
2010 10 27.01392 02 08 40.35 +14 46 05.3   203 – GiaGa Observatory MPS 351752
2010 10 27.90256 02 02 24.77 +16 06 56.3 17.0 V A48 – Povegliano Veronese MPS 351752
2010 10 27.90431 02 02 23.98 +16 07 06.1 16.9 V A48 – Povegliano Veronese MPS 351752
2010 10 27.90606 02 02 23.19 +16 07 16.2 17.0 V A48 – Povegliano Veronese MPS 351752
2010 10 27.90781 02 02 22.39 +16 07 26.0 17.0 V A48 – Povegliano Veronese MPS 351752
2010 10 28.25446 01 59 46.14 +16 40 33.0 16.9 V 703 – Catalina Sky Survey MPS 351752
2010 10 28.26196 01 59 42.57 +16 41 16.2 16.9 V 703 – Catalina Sky Survey MPS 351752
2010 10 28.26943 01 59 39.01 +16 41 59.9 16.9 V 703 – Catalina Sky Survey MPS 351752
2010 10 28.27703 01 59 35.41 +16 42 43.8 16.9 V 703 – Catalina Sky Survey MPS 351752
2010 10 28.93746 01 54 22.01 +17 47 40.7 16.9 R A53 – Peschiera del Garda MPS 351752
2010 10 28.94440 01 54 18.50 +17 48 22.7 16.4 R A53 – Peschiera del Garda MPS 351752
